When you browse on this site, cookies collect data to enhance your experience and personalize the content and advertising you see.
Visit our Privacy Policy to learn more. By continuing to use the site, you agree to this use of cookies and data.
  • In Hungary
  • List of Countries
  • For 7 days
  • Water Temperature
  • Weather Map
  • News
  • Weather Widgets
  • user-avatar
    Login

    Hourly Weather Maloberezans'ke

    Today, 13 November, Wednesday

    Time Temperature Precipitation Wind Pressure Humidity
    00:00 +8°C° 0 mm 5 mps 749 mmHg 87%
    01:00 +8°C° 0 mm 4 mps 749 mmHg 89%
    02:00 +8°C° 0 mm 4 mps 749 mmHg 90%
    03:00 +8°C° 0 mm 4 mps 749 mmHg 90%
    04:00 +7°C° 0 mm 4 mps 749 mmHg 90%
    05:00 +7°C° 0 mm 5 mps 749 mmHg 90%
    06:00 +8°C° 0 mm 5 mps 749 mmHg 90%
    07:00 +8°C° 0 mm 6 mps 749 mmHg 90%
    08:00 +8°C° 0 mm 6 mps 749 mmHg 90%
    09:00 +9°C° 0 mm 6 mps 748 mmHg 82%
    10:00 +11°C° 0 mm 7 mps 748 mmHg 74%
    11:00 +14°C° 0 mm 7 mps 748 mmHg 65%
    12:00 +15°C° 0 mm 7 mps 748 mmHg 60%
    13:00 +15°C° 0 mm 8 mps 748 mmHg 55%
    14:00 +16°C° 0 mm 8 mps 747 mmHg 49%
    15:00 +15°C° 0 mm 7 mps 747 mmHg 52%
    16:00 +14°C° 0 mm 7 mps 747 mmHg 55%
    17:00 +13°C° 0 mm 6 mps 747 mmHg 57%
    18:00 +13°C° 0 mm 6 mps 747 mmHg 59%
    19:00 +11°C° 0 mm 6 mps 747 mmHg 60%
    20:00 +11°C° 0 mm 6 mps 747 mmHg 62%
    21:00 +10°C° 0 mm 6 mps 747 mmHg 63%
    22:00 +10°C° 0 mm 6 mps 747 mmHg 63%
    23:00 +10°C° 0 mm 6 mps 747 mmHg 64%

    Tomorrow, 14 November, Thursday

    Time Temperature Precipitation Wind Pressure Humidity
    00:00 +9°C° 0 mm 6 mps 747 mmHg 67%
    01:00 +9°C° 0 mm 6 mps 747 mmHg 69%
    02:00 +8°C° 0 mm 5 mps 747 mmHg 72%
    03:00 +7°C° 0 mm 5 mps 747 mmHg 75%
    04:00 +7°C° 0 mm 5 mps 747 mmHg 77%
    05:00 +7°C° 0 mm 5 mps 747 mmHg 80%
    06:00 +6°C° 0 mm 5 mps 747 mmHg 81%
    07:00 +6°C° 0 mm 5 mps 747 mmHg 81%
    08:00 +6°C° 0 mm 5 mps 747 mmHg 82%
    09:00 +7°C° 0 mm 5 mps 747 mmHg 76%
    10:00 +8°C° 0 mm 6 mps 747 mmHg 69%
    11:00 +10°C° 0 mm 6 mps 747 mmHg 63%
    12:00 +10°C° 0 mm 6 mps 747 mmHg 60%
    13:00 +11°C° 0 mm 6 mps 747 mmHg 56%
    14:00 +11°C° 0 mm 6 mps 747 mmHg 53%
    15:00 +10°C° 0 mm 5 mps 747 mmHg 56%
    16:00 +9°C° 0 mm 5 mps 747 mmHg 58%
    17:00 +8°C° 0 mm 4 mps 747 mmHg 61%
    18:00 +8°C° 0 mm 4 mps 747 mmHg 59%
    19:00 +7°C° 0 mm 4 mps 747 mmHg 57%
    20:00 +7°C° 0 mm 5 mps 748 mmHg 55%
    21:00 +6°C° 0 mm 5 mps 748 mmHg 55%
    22:00 +6°C° 0 mm 5 mps 748 mmHg 55%
    23:00 +5°C° 0 mm 5 mps 748 mmHg 55%

    Day after tomorrow, 15 November, Friday

    Time Temperature Precipitation Wind Pressure Humidity
    00:00 +5°C° 0 mm 4 mps 748 mmHg 58%
    01:00 +4°C° 0 mm 4 mps 748 mmHg 61%
    02:00 +4°C° 0 mm 4 mps 748 mmHg 65%
    03:00 +4°C° 0 mm 4 mps 748 mmHg 66%
    04:00 +3°C° 0 mm 4 mps 748 mmHg 68%
    05:00 +3°C° 0 mm 4 mps 748 mmHg 70%
    06:00 +3°C° 0 mm 4 mps 748 mmHg 70%
    07:00 +3°C° 0 mm 4 mps 749 mmHg 70%
    08:00 +3°C° 0 mm 4 mps 749 mmHg 71%
    09:00 +4°C° 0 mm 4 mps 749 mmHg 69%
    10:00 +5°C° 0 mm 4 mps 749 mmHg 65%
    11:00 +6°C° 0 mm 4 mps 749 mmHg 61%
    12:00 +6°C° 0 mm 4 mps 749 mmHg 59%
    13:00 +7°C° 0 mm 4 mps 749 mmHg 58%
    14:00 +7°C° 0 mm 4 mps 749 mmHg 56%
    15:00 +6°C° 0 mm 4 mps 749 mmHg 59%
    16:00 +7°C° 0 mm 3 mps 749 mmHg 62%
    17:00 +5°C° 0 mm 3 mps 749 mmHg 65%
    18:00 +5°C° 0 mm 3 mps 750 mmHg 67%
    19:00 +4°C° 0 mm 3 mps 750 mmHg 69%
    20:00 +4°C° 0 mm 3 mps 750 mmHg 71%
    21:00 +4°C° 0 mm 3 mps 750 mmHg 73%
    22:00 +4°C° 0 mm 3 mps 751 mmHg 75%
    23:00 +4°C° 0 mm 3 mps 751 mmHg 77%

    16 November, Saturday

    Time Temperature Precipitation Wind Pressure Humidity
    00:00 +3°C° 0 mm 3 mps 751 mmHg 78%
    01:00 +3°C° 0 mm 3 mps 751 mmHg 79%
    02:00 +3°C° 0 mm 3 mps 751 mmHg 81%
    03:00 +2°C° 0 mm 3 mps 751 mmHg 81%
    04:00 +2°C° 0 mm 3 mps 751 mmHg 82%
    05:00 +2°C° 0 mm 3 mps 751 mmHg 83%
    06:00 +2°C° 0 mm 3 mps 751 mmHg 83%
    07:00 +2°C° 0 mm 3 mps 752 mmHg 83%
    08:00 +2°C° 0 mm 3 mps 752 mmHg 82%
    09:00 +3°C° 0 mm 4 mps 752 mmHg 77%
    10:00 +5°C° 0 mm 4 mps 752 mmHg 71%
    11:00 +6°C° 0 mm 4 mps 752 mmHg 66%
    12:00 +6°C° 0 mm 4 mps 752 mmHg 64%
    13:00 +7°C° 0 mm 4 mps 752 mmHg 61%
    14:00 +8°C° 0 mm 3 mps 752 mmHg 59%
    15:00 +7°C° 0 mm 3 mps 752 mmHg 63%
    16:00 +5°C° 0 mm 3 mps 752 mmHg 67%
    17:00 +4°C° 0 mm 3 mps 752 mmHg 71%
    18:00 +4°C° 0 mm 3 mps 752 mmHg 72%
    19:00 +3°C° 0 mm 3 mps 752 mmHg 73%
    20:00 +3°C° 0 mm 3 mps 753 mmHg 74%
    21:00 +3°C° 0 mm 3 mps 753 mmHg 75%
    22:00 +2°C° 0 mm 3 mps 753 mmHg 77%
    23:00 +2°C° 0 mm 3 mps 753 mmHg 78%

    17 November, Sunday

    Time Temperature Precipitation Wind Pressure Humidity
    00:00 +2°C° 0 mm 3 mps 753 mmHg 79%
    01:00 +2°C° 0 mm 3 mps 753 mmHg 81%
    02:00 +1°C° 0 mm 3 mps 753 mmHg 82%
    03:00 +1°C° 0 mm 3 mps 753 mmHg 83%
    04:00 +1°C° 0 mm 3 mps 753 mmHg 83%
    05:00 +1°C° 0 mm 3 mps 753 mmHg 84%
    06:00 0°C° 0 mm 4 mps 753 mmHg 84%
    07:00 -1°C° 0 mm 4 mps 753 mmHg 85%
    08:00 -1°C° 0 mm 4 mps 753 mmHg 85%
    09:00 +1°C° 0 mm 4 mps 753 mmHg 80%
    10:00 +3°C° 0 mm 4 mps 754 mmHg 74%
    11:00 +4°C° 0 mm 4 mps 754 mmHg 69%
    12:00 +5°C° 0 mm 4 mps 753 mmHg 67%
    13:00 +6°C° 0 mm 5 mps 753 mmHg 66%
    14:00 +6°C° 0 mm 5 mps 753 mmHg 64%
    15:00 +5°C° 0 mm 5 mps 753 mmHg 69%
    16:00 +5°C° 0 mm 4 mps 753 mmHg 74%
    17:00 +4°C° 0 mm 4 mps 752 mmHg 79%
    18:00 +3°C° 0 mm 4 mps 753 mmHg 80%
    19:00 +3°C° 0 mm 4 mps 753 mmHg 82%
    20:00 +3°C° 0 mm 4 mps 753 mmHg 83%
    21:00 +3°C° 0 mm 4 mps 753 mmHg 84%
    22:00 +3°C° 0 mm 4 mps 753 mmHg 85%
    23:00 +1°C° 0 mm 4 mps 753 mmHg 86%

    18 November, Monday

    Time Temperature Precipitation Wind Pressure Humidity
    00:00 +1°C° 0 mm 4 mps 753 mmHg 87%
    01:00 +1°C° 0 mm 4 mps 753 mmHg 89%
    02:00 +1°C° 0 mm 3 mps 753 mmHg 90%
    03:00 +1°C° 0 mm 3 mps 752 mmHg 91%
    04:00 +1°C° 0 mm 3 mps 752 mmHg 92%
    05:00 +1°C° 0 mm 3 mps 752 mmHg 92%
    06:00 +1°C° 0 mm 3 mps 752 mmHg 93%
    07:00 +1°C° 0 mm 3 mps 752 mmHg 93%
    08:00 +1°C° 0 mm 3 mps 752 mmHg 94%
    09:00 +3°C° 0 mm 3 mps 752 mmHg 85%
    10:00 +5°C° 0 mm 4 mps 753 mmHg 76%
    11:00 +6°C° 0 mm 4 mps 753 mmHg 68%
    12:00 +7°C° 0 mm 4 mps 752 mmHg 63%
    13:00 +8°C° 0 mm 4 mps 752 mmHg 58%
    14:00 +10°C° 0 mm 4 mps 752 mmHg 53%
    15:00 +8°C° 0 mm 4 mps 752 mmHg 58%
    16:00 +6°C° 0 mm 4 mps 751 mmHg 64%
    17:00 +5°C° 0 mm 4 mps 751 mmHg 69%
    18:00 +5°C° 0 mm 4 mps 751 mmHg 69%
    19:00 +4°C° 0 mm 4 mps 751 mmHg 69%
    20:00 +3°C° 0 mm 3 mps 752 mmHg 68%
    21:00 +3°C° 0 mm 3 mps 752 mmHg 67%
    22:00 +3°C° 0 mm 3 mps 752 mmHg 65%
    23:00 +3°C° 0 mm 2 mps 752 mmHg 64%
    Show more